Weather History for Deer Park, WA

Change the Weather History Date:

Friday, August 23, 2013

  Actual Average Record
Temperature  
Mean Temperature 67 °F 64 °F  
Max Temperature 80 °F 82 °F 91 °F (1999)
Min Temperature 53 °F 46 °F 39 °F (2010)
Degree Days  
Heating Degree Days 0 3  
Month to date heating degree days 14 46  
Since 1 June heating degree days 239 314  
Since 1 July heating degree days 37 114  
Cooling Degree Days 2 2  
Month to date cooling degree days 97 62  
Year to date cooling degree days 229 159  
Since 1 June cooling degree days 226 156  
Growing Degree Days 18 (Base 50)    
Moisture  
Dew Point 51 °F    
Average Humidity 57    
Maximum Humidity 77    
Minimum Humidity 36    
Precipitation  
Precipitation 0.03 in 0.03 in 0.32 in (2001)
Month to date precipitation 1.69 0.55  
Year to date precipitation 11.55 13.15  
Sea Level Pressure  
Sea Level Pressure 29.81 in    
Wind  
Wind Speed 3 mph (SW)    
Max Wind Speed 15 mph    
Max Gust Speed 18 mph    
Visibility 10 miles    
Events Rain , Thunderstorm    
T = Trace of Precipitation, MM = Missing Value Source: NWS Daily Summary

Daily Weather History Graph

Daily Weather History Graph

Search for Another Location

Airport:

Trip Planner

Search our weather history database for the weather conditions in past years. The results will help you decide how hot, cold, wet, or windy it might be!

Date:

Astronomy

Aug. 23, 2013 Rise Set
Actual Time 5:55 AM PDT 7:47 PM PDT
Civil Twilight 5:22 AM PDT 8:20 PM PDT
Nautical Twilight 4:42 AM PDT 9:00 PM PDT
Astronomical Twilight 3:57 AM PDT 9:45 PM PDT
Moon 8:48 PM PDT (8/23) 9:14 AM PDT (8/23)
Length of Visible Light 14h 57m
Length of Day
13h 51m
Waning Gibbous, 91% of the Moon is Illuminated
Aug 23
Waning Gibbous
Aug 28
Last Quarter
Sep 5
New
Sep 12
First Quarter
Sep 19
Full

Hourly Weather History & Observations

Time (PDT) Temp. Dew Point Humidity Pressure Visibility Wind Dir Wind Speed Gust Speed Precip Events Conditions
12:53 AM 68.0 °F 42.1 °F 39% 29.81 in 10.0 mi Calm Calm - N/A   Scattered Clouds
1:53 AM 63.0 °F 44.1 °F 50% 29.82 in 10.0 mi Calm Calm - N/A   Scattered Clouds
2:53 AM 64.0 °F 46.0 °F 52% 29.81 in 10.0 mi Calm Calm - N/A   Partly Cloudy
3:53 AM 66.9 °F 50.0 °F 54% 29.80 in 10.0 mi South 6.9 mph - N/A   Partly Cloudy
4:53 AM 64.0 °F 50.0 °F 60% 29.80 in 10.0 mi Calm Calm - N/A   Overcast
5:53 AM 60.1 °F 48.9 °F 67% 29.80 in 10.0 mi NNE 4.6 mph - N/A   Mostly Cloudy
6:53 AM 62.1 °F 52.0 °F 70% 29.81 in 10.0 mi Calm Calm - N/A   Mostly Cloudy
7:53 AM 66.0 °F 52.0 °F 60% 29.84 in 10.0 mi Calm Calm - N/A   Overcast
8:33 AM 68.0 °F 53.6 °F 60% 29.88 in 10.0 mi SW 5.8 mph - N/A Thunderstorm Thunderstorm
8:53 AM 68.0 °F 53.1 °F 59% 29.84 in 10.0 mi Calm Calm - N/A Thunderstorm Overcast
9:02 AM 66.2 °F 55.4 °F 68% 29.88 in 6.0 mi Calm Calm - 0.01 in Rain Light Rain
9:53 AM 68.0 °F 59.0 °F 73% 29.84 in 10.0 mi Calm Calm - 0.03 in   Overcast
10:53 AM 71.1 °F 55.0 °F 57% 29.84 in 10.0 mi Calm Calm - N/A   Clear
11:53 AM 72.0 °F 55.9 °F 57% 29.83 in 10.0 mi West 5.8 mph - N/A   Clear
12:53 PM 73.9 °F 54.0 °F 50% 29.81 in 10.0 mi Variable 3.5 mph - N/A   Clear
1:53 PM 75.0 °F 54.0 °F 48% 29.81 in 10.0 mi SW 6.9 mph - N/A   Mostly Cloudy
2:53 PM 78.1 °F 55.0 °F 45% 29.80 in 10.0 mi West 9.2 mph - N/A   Clear
3:53 PM 80.1 °F 51.1 °F 36% 29.78 in 10.0 mi SW 8.1 mph - N/A   Clear
4:53 PM 78.1 °F 52.0 °F 40% 29.77 in 10.0 mi WSW 6.9 mph - N/A   Mostly Cloudy
5:53 PM 79.0 °F 51.1 °F 38% 29.76 in 10.0 mi WSW 4.6 mph - N/A   Mostly Cloudy
6:53 PM 78.1 °F 50.0 °F 37% 29.76 in 10.0 mi WSW 6.9 mph - N/A   Clear
7:53 PM 72.0 °F 48.9 °F 44% 29.77 in 10.0 mi SSW 4.6 mph - N/A   Clear
8:53 PM 61.0 °F 50.0 °F 67% 29.80 in 10.0 mi Calm Calm - N/A   Clear
9:53 PM 59.0 °F 48.9 °F 69% 29.80 in 10.0 mi Calm Calm - N/A   Clear
10:53 PM 57.0 °F 48.9 °F 74% 29.80 in 10.0 mi Calm Calm - N/A   Clear
11:53 PM 55.0 °F 48.0 °F 77% 29.81 in 10.0 mi Calm Calm - N/A   Clear